[[{"header":{"parameterUnit":"m.s-1","parameterCategory":1,"la1":30.2991,"la2":30.254,"lo1":-89.0895,"lo2":-89.0444,"dy":0.0017,"dx":0.0017,"nx":28,"ny":28,"refTime":"2024-06-23T21:00:00:Z","depth":0,"parameterNumber":2,"parameterNumberName":"U-component_of_WINDS"},"data":[0,0,0,0,0,0,0,0,0,0,0,0,0,0,0,0,0,0,0,0,0,0,0,0,0,0,0,0,0,0,0,0,0,0,0,0,0,0,0,0,0,0,0,0,0,0,0,0,0,0,0,0,0,0,0,0,0,0,2.13,2.1301,0,2.1409,2.141,2.1411,2.1415,2.1414,2.1412,2.1411,2.1525,2.1529,2.1533,0,0,0,0,0,0,0,0,0,0,0,0,0,2.1098,2.1101,2.13,2.1301,2.1303,2.1409,2.141,2.1412,2.1415,2.1414,2.1412,2.1411,2.1524,2.1529,2.1534,0,0,0,0,0,0,0,0,0,0,0,0,0,2.1194,2.1103,2.13,2.1317,2.132,2.1408,2.141,2.1412,2.1416,2.1414,2.1412,2.141,2.1522,2.1528,2.1534,2.1613,0,0,2.1554,2.1557,0,0,0,0,0,0,0,0,2.1188,2.1201,2.1313,2.1316,2.1319,2.1396,2.138,2.148,2.1416,2.1379,2.1411,2.1409,2.1484,2.1493,2.1518,2.1619,2.1624,2.1555,2.1558,2.1561,2.1563,0,0,0,0,0,0,0,2.1182,2.1197,2.1343,2.1315,2.1319,2.132,2.1332,2.1399,2.1441,2.1382,2.1383,2.1396,2.1485,2.1512,2.1521,2.1625,2.1554,2.156,2.1564,2.1566,2.1796,2.1798,0,0,0,0,0,0,2.1171,2.1191,2.134,2.1346,2.1248,2.1326,2.1338,2.1374,2.1441,2.1449,2.1397,2.1395,2.1502,2.1513,2.1525,2.1621,2.1561,2.1567,2.1571,2.1794,2.1796,2.1799,0,0,0,0,0,0,2.1167,2.1185,2.1335,2.1269,2.1288,2.1331,2.1371,2.1377,2.1403,2.1452,2.146,2.1417,2.1501,2.1516,2.1591,2.1625,2.157,2.1576,2.1791,2.1794,2.1798,2.1813,0,0,0,0,0,0,2.1161,2.1183,2.1213,2.127,2.1292,2.1399,2.1373,2.138,2.1414,2.1413,2.1472,2.148,2.1501,2.1581,2.1597,2.1632,2.1581,2.1788,2.1792,2.1796,2.181,2.1817,2.1823,0,0,0,0,0,2.1154,2.1213,2.1214,2.1232,2.133,2.1401,2.1413,2.1435,2.1417,2.1447,2.1479,2.1478,2.1619,2.1589,2.1607,2.1645,2.1786,2.1791,2.1796,2.1807,2.1816,2.1823,0,0,0,0,0,0,2.116,2.1221,2.1223,2.1302,2.1346,2.1401,2.144,2.1443,2.1494,2.149,2.1516,2.153,2.1604,2.1632,2.1598,2.1724,2.17,2.1709,2.1703,2.1711,2.1717,2.1708,2.1586,0,0,0,0,0,2.117,2.1222,2.1273,2.1339,2.1361,2.1397,2.1428,2.1441,2.1488,2.1507,2.1544,2.159,2.1644,2.168,2.1733,2.1815,2.1828,2.185,2.1856,2.1861,2.1868,2.1913,2.1923,2.1815,2.1815,2.1815,0,0,2.1193,2.1233,2.1264,2.1341,2.1376,2.143,2.1412,2.147,2.151,2.1516,2.1588,2.1617,2.1671,2.1749,2.1786,2.1775,2.1901,2.1868,2.1871,2.1875,2.1919,2.1929,2.1938,2.1819,2.1818,2.1818,0,0,2.126,2.1296,2.1354,2.139,2.1444,2.1467,2.1481,2.1536,2.1555,2.1629,2.1634,2.1683,2.1777,2.1814,2.1845,2.1928,2.1929,2.1945,2.1977,2.2021,2.2029,2.2037,2.2065,2.2075,2.1952,2.1952,2.1952,0,2.1281,2.1361,2.1383,2.144,2.1474,2.1482,2.1541,2.1575,2.1644,2.1667,2.1654,2.1772,2.1808,2.1895,2.1915,2.1941,2.1958,2.1937,2.2026,2.2034,2.2041,2.2068,2.2079,2.1953,2.1953,2.1953,2.1953,0,2.1383,2.1439,2.1479,2.1544,2.1583,2.1641,2.1673,2.1709,2.1719,2.1745,2.1819,2.1864,2.1925,2.1948,2.1958,2.2036,2.2028,2.2021,2.1996,2.2052,2.2078,2.2089,2.1955,2.1955,2.1954,2.1954,0,0,2.1455,2.1533,2.1547,2.1576,2.1637,2.1681,2.174,2.1799,2.183,2.1878,2.1927,2.2007,2.2,2.2035,2.2051,2.2089,2.215,2.2077,2.2079,2.2088,2.2238,2.2241,2.2253,2.2153,2.2155,2.2156,2.2233,0,2.1528,2.1631,2.1653,2.1742,2.1794,2.1803,2.1854,2.1897,2.1923,2.1971,2.2,2.2055,2.2043,2.2064,2.2103,2.2135,2.2181,2.213,2.2198,2.22,2.2182,2.2267,2.2271,2.2341,2.2243,2.2245,2.2246,0,2.1625,2.1675,2.1769,2.1822,2.1845,2.189,2.1946,2.1993,2.2042,2.2058,2.2098,2.2109,2.2171,2.2146,2.2231,2.2196,2.2226,2.2246,2.225,2.2255,2.2225,2.2273,2.2364,2.2374,2.2263,2.2261,2.226,0,2.1666,2.1756,2.1824,2.185,2.1914,2.1946,2.1975,2.2022,2.2056,2.2107,2.2129,2.2186,2.2217,2.2261,2.2288,2.2267,2.2371,2.2348,2.2385,2.2385,2.2405,2.2403,2.25,2.2428,2.2428,2.2427,2.2427,0,2.1744,2.18,2.1843,2.1884,2.1949,2.1975,2.2038,2.2067,2.2109,2.2156,2.2169,2.2214,2.2247,2.2297,2.2318,2.2385,2.24,2.2414,2.2419,2.2412,2.241,2.243,2.2425,2.243,2.243,2.2429,2.2429,0,2.1799,2.183,2.1904,2.196,2.1975,2.202,2.2068,2.2109,2.2135,2.2195,2.2211,2.2252,2.2311,2.2343,2.2417,2.2432,2.2506,2.2509,2.2488,2.249,2.2525,2.2521,2.2637,2.2653,2.2572,2.2572,2.2573,0,2.1845,2.1889,2.1949,2.1981,2.201,2.2063,2.2098,2.2126,2.2162,2.2222,2.2256,2.2315,2.2364,2.2458,2.2495,2.2551,2.2555,2.2592,2.2563,2.2555,2.2553,2.2549,2.2553,2.2596,2.2597,2.2597,2.2598,0,2.1923,2.1936,2.1986,2.2042,2.2083,2.2128,2.2173,2.2199,2.2235,2.2275,2.2335,2.2373,2.2448,2.2506,2.2566,2.2596,2.2603,2.2607,2.2618,2.261,2.2596,2.2602,2.25,2.2604,2.2603,2.2603,2.2602,2.2602,2.1974,2.2013,2.2061,2.2116,2.2153,2.2195,2.2236,2.2267,2.2318,2.238,2.2395,2.2458,2.2507,2.2587,2.2619,2.2669,2.2662,2.2679,2.2683,2.2686,2.2686,2.259,2.2681,2.2681,2.268,2.268,2.268,0,2.205,2.2082,2.2133,2.2195,2.2239,2.2242,2.2292,2.2328,2.2383,2.2428,2.2476,2.2544,2.2601,2.2644,2.2702,2.2734,2.2738,2.2748,2.2745,2.2752,2.2691,2.2674,2.2743,2.2743,2.2743,2.2743,2.2743,2.2743,2.2095,2.2161,2.2181,2.2265,2.2297,2.2358,2.2387,2.2425,2.2461,2.2537,2.2584,2.2612,2.2656,2.2717,2.277,2.2781,2.2801,2.281,2.2821,2.2763,2.2756,2.275,2.2734,2.2815,2.2815,2.2878,2.2879,2.2879]},{"header":{"parameterUnit":"m.s-1","parameterCategory":1,"la1":30.2991,"la2":30.254,"lo1":-89.0895,"lo2":-89.0444,"dy":0.0017,"dx":0.0017,"nx":28,"ny":28,"refTime":"2024-06-23T21:00:00:Z","depth":0,"parameterNumber":3,"parameterNumberName":"V-component_of_WINDS"},"data":[0,0,0,0,0,0,0,0,0,0,0,0,0,0,0,0,0,0,0,0,0,0,0,0,0,0,0,0,0,0,0,0,0,0,0,0,0,0,0,0,0,0,0,0,0,0,0,0,0,0,0,0,0,0,0,0,0,0,4.654,4.6541,0,4.6577,4.6577,4.6578,4.6568,4.6567,4.6567,4.6566,4.6598,4.6599,4.6601,0,0,0,0,0,0,0,0,0,0,0,0,0,4.6457,4.6459,4.654,4.6541,4.6541,4.6577,4.6577,4.6578,4.6568,4.6567,4.6567,4.6566,4.6597,4.6599,4.6601,0,0,0,0,0,0,0,0,0,0,0,0,0,4.6493,4.6459,4.654,4.6541,4.6542,4.6577,4.6577,4.6578,4.6568,4.6567,4.6566,4.6565,4.6597,4.6599,4.6601,4.6636,0,0,4.6608,4.6609,0,0,0,0,0,0,0,0,4.6491,4.6496,4.6541,4.6541,4.6542,4.6567,4.656,4.6597,4.6569,4.6558,4.6566,4.6565,4.6588,4.6591,4.66,4.6638,4.6639,4.6608,4.661,4.6611,4.6611,0,0,0,0,0,0,0,4.6489,4.6495,4.6555,4.6541,4.6542,4.6538,4.6542,4.6567,4.6578,4.6559,4.6558,4.6563,4.6588,4.6598,4.6601,4.664,4.6608,4.661,4.6612,4.6613,4.6706,4.6707,0,0,0,0,0,0,4.6487,4.6493,4.6553,4.6556,4.6514,4.654,4.6544,4.656,4.6578,4.658,4.6564,4.6562,4.6595,4.6598,4.6602,4.6643,4.6611,4.6613,4.6614,4.6705,4.6706,4.6708,0,0,0,0,0,0,4.6485,4.6492,4.6552,4.6524,4.6531,4.6543,4.656,4.6561,4.6571,4.6582,4.6583,4.6572,4.6594,4.6599,4.6628,4.6644,4.6614,4.6616,4.6704,4.6705,4.6707,4.6726,0,0,0,0,0,0,4.6483,4.6492,4.6506,4.6525,4.6533,4.6579,4.6561,4.6563,4.6575,4.6574,4.659,4.6592,4.6593,4.6624,4.663,4.6646,4.6618,4.6702,4.6704,4.6706,4.6724,4.6728,4.6731,0,0,0,0,0,4.648,4.6509,4.6507,4.6515,4.6552,4.658,4.6585,4.6588,4.6577,4.6591,4.6598,4.6591,4.6641,4.6628,4.6634,4.6651,4.6701,4.6704,4.6706,4.6722,4.6727,4.6731,0,0,0,0,0,0,4.6491,4.6512,4.651,4.6547,4.6562,4.6579,4.6596,4.6593,4.6611,4.6608,4.661,4.6613,4.6643,4.665,4.6634,4.6685,4.6669,4.6673,4.6679,4.6684,4.6688,4.6685,4.662,0,0,0,0,0,4.6498,4.6521,4.6537,4.6568,4.6576,4.6585,4.6597,4.6599,4.6614,4.6619,4.6629,4.6642,4.6661,4.6673,4.6691,4.6725,4.6727,4.674,4.6744,4.6747,4.675,4.6767,4.6772,4.6716,4.6716,4.6716,0,0,4.6512,4.6526,4.6541,4.6571,4.6583,4.6604,4.659,4.6614,4.663,4.6622,4.6651,4.6658,4.6673,4.6704,4.6719,4.6711,4.6766,4.675,4.6752,4.6754,4.677,4.6775,4.678,4.6718,4.6717,4.6717,0,0,4.6549,4.6563,4.659,4.6602,4.6621,4.6627,4.6633,4.6651,4.6656,4.6685,4.6679,4.6697,4.673,4.674,4.675,4.679,4.6784,4.6796,4.6816,4.6832,4.6837,4.6841,4.6854,4.6859,4.6799,4.6799,4.6799,0,4.6564,4.6598,4.6603,4.6628,4.664,4.6637,4.6663,4.6674,4.6697,4.6705,4.6697,4.6737,4.6747,4.678,4.679,4.6799,4.6804,4.6794,4.6836,4.684,4.6844,4.6856,4.6861,4.6801,4.68,4.68,4.68,0,4.6614,4.6638,4.6657,4.6682,4.6696,4.6721,4.6728,4.6742,4.6742,4.6748,4.6776,4.6788,4.6808,4.6816,4.6816,4.6849,4.6844,4.6836,4.682,4.685,4.6862,4.6867,4.6802,4.6802,4.6801,4.6801,0,0,4.6658,4.6686,4.6692,4.6703,4.6724,4.6741,4.6765,4.6786,4.6797,4.6813,4.6832,4.686,4.6853,4.6864,4.6864,4.6879,4.6909,4.6869,4.6869,4.6875,4.6944,4.6949,4.6955,4.6906,4.6906,4.6907,4.6943,0,4.6696,4.6741,4.6746,4.6784,4.6805,4.6802,4.6823,4.6836,4.6843,4.686,4.6866,4.6885,4.6875,4.6881,4.6896,4.6902,4.6922,4.69,4.6921,4.6922,4.6916,4.6961,4.6967,4.7,4.6948,4.6948,4.6949,0,4.6746,4.6765,4.6806,4.6823,4.6832,4.6851,4.687,4.6887,4.6902,4.6905,4.6918,4.6917,4.6939,4.6924,4.6954,4.6938,4.6947,4.6952,4.6953,4.6954,4.6936,4.6962,4.7011,4.7015,4.6956,4.6956,4.6955,0,4.6772,4.6808,4.6837,4.6846,4.6867,4.688,4.6889,4.6903,4.6915,4.6932,4.6939,4.6957,4.6967,4.698,4.6983,4.6972,4.7013,4.6998,4.7014,4.7014,4.7022,4.7021,4.7071,4.703,4.703,4.703,4.703,0,4.6812,4.6837,4.6849,4.6866,4.6894,4.6899,4.6925,4.6933,4.6945,4.6963,4.6961,4.6977,4.6981,4.6998,4.7,4.7024,4.7028,4.703,4.703,4.703,4.7029,4.7035,4.7032,4.7031,4.7031,4.7031,4.703,0,4.6845,4.6854,4.6886,4.6904,4.6909,4.6928,4.6942,4.6958,4.6964,4.6987,4.6992,4.7001,4.7021,4.7025,4.7048,4.7049,4.7077,4.7076,4.7073,4.7072,4.7088,4.7086,4.7142,4.7149,4.7105,4.7105,4.7105,0,4.687,4.6889,4.691,4.6922,4.6932,4.6953,4.6966,4.6971,4.6984,4.7002,4.7016,4.7035,4.7051,4.7082,4.7089,4.7106,4.7104,4.7122,4.7106,4.7105,4.7102,4.7101,4.7102,4.7125,4.7125,4.7126,4.7126,0,4.6912,4.6915,4.6935,4.6956,4.6972,4.6988,4.7003,4.7013,4.7021,4.7035,4.7056,4.7068,4.7092,4.711,4.7128,4.7135,4.7131,4.7131,4.7136,4.7135,4.7132,4.7133,4.708,4.713,4.7129,4.7129,4.7129,4.7129,4.694,4.6957,4.6974,4.6996,4.7008,4.7023,4.7039,4.7048,4.7066,4.7086,4.7088,4.711,4.7123,4.7147,4.7155,4.7171,4.7165,4.7172,4.7173,4.7175,4.7176,4.7131,4.7174,4.7174,4.7174,4.7174,4.7174,0,4.6981,4.6992,4.7012,4.7035,4.7051,4.7049,4.7066,4.7079,4.7099,4.7113,4.7129,4.7152,4.717,4.7179,4.7197,4.7208,4.7206,4.7212,4.7211,4.7212,4.718,4.7174,4.7213,4.7213,4.7213,4.7213,4.7213,4.7213,4.7004,4.7032,4.7038,4.7071,4.7082,4.7105,4.7114,4.7127,4.7138,4.7165,4.7181,4.7187,4.7199,4.7217,4.7233,4.7235,4.7241,4.7248,4.7249,4.7219,4.7214,4.7211,4.7205,4.7249,4.7249,4.7279,4.7279,4.7279]}]]